(104263) = 2000 EZ144

Discovered at Catalina on 2000-03-03 by CSS.

Orbit

Orbit type: Main Belt

Note: WebGL enabled browser required.

epoch2023-09-13.0
epoch JD2460200.5
perihelion date2022-10-17.73341
perihelion JD2459870.23341
argument of perihelion (°)10.80426
ascending node (°)189.97380
inclination (°)15.02548
eccentricity0.1448819
perihelion distance (AU)2.6962790
Tisserand w.r.t. Jupiter3.1
ΔV w.r.t. Earth (km/sec)11.2
semimajor axis (AU)3.1531071
mean anomaly (°)58.13804
mean daily motion (°/day)0.17603370
aphelion distance (AU)3.610
period (years)5.6
P-vector [x]-0.93607164
P-vector [y]-0.33901538
P-vector [z]-0.09401310
Q-vector [x]0.34893233
Q-vector [y]-0.92875922
Q-vector [z]-0.12511014
absolute magnitude14.49
phase slope0.15
uncertainty0
referenceMPEC 2024-A48
observations used1075
oppositions19
arc length (days)11606
first opposition used1991
last opposition used2023
residual rms (arc-secs)0.73
perturbers coarse indicatorM-v
perturbers precise indicator003Ek
first observation date used1991-10-06.0
last observation date used2023-07-16.0
computer nameMPCLINUX
JD of orbit computation2456966.824075
perihelion JD uncertainty (days)1.0129E-04
argument of perihelion uncertainty (°)2.0964E-05
ascending node uncertainty (°)1.4884E-05
inclination uncertainty (°)7.3286E-06
eccentricity uncertainty 5.9139E-08
perihelion distance uncertainty (AU)1.8660E-07
Minimum Orbit Intersection Distances (in AU)
for orbit epoch: 2460200.5, reference: E2024-A48
Mercury2.26705
Venus1.97471
Earth1.6948
Mars1.06488
Jupiter1.34322
Saturn5.65707
Uranus15.6922
Neptune26.2325

Observations

1095 total observations over interval: 1991 10 06.17793 – 2023 07 16.119014
These data are available for download (format description).

Date (UT) J2000 RA J2000 Dec Magn Location Ref
1991 10 06.17793 00 32 13.07 +03 37 59.8   691 – Steward Observatory, Kitt Peak-Spacewatch MPS 61018
1991 10 06.19867 00 32 12.26 +03 37 51.1 20.1 V 691 – Steward Observatory, Kitt Peak-Spacewatch MPS 61018
1991 10 06.21918 00 32 11.39 +03 37 41.7   691 – Steward Observatory, Kitt Peak-Spacewatch MPS 61018
2000 03 03.35936 12 27 24.79 -07 24 46.0 18.5 R 703 – Catalina Sky Survey MPS 12491
2000 03 03.37516 12 27 24.33 -07 24 38.7 18.2 R 703 – Catalina Sky Survey MPS 12491
2000 03 03.39083 12 27 23.90 -07 24 31.0 18.4 R 703 – Catalina Sky Survey MPS 12491
2000 03 03.40654 12 27 23.46 -07 24 24.1 18.2 R 703 – Catalina Sky Survey MPS 12491
2000 03 09.30729 12 24 28.52 -06 35 15.2 18.7   704 – Lincoln Laboratory ETS, New Mexico MPS 12491
2000 03 09.32114 12 24 28.04 -06 35 07.9 19.2   704 – Lincoln Laboratory ETS, New Mexico MPS 12491
2000 03 09.33496 12 24 27.61 -06 35 00.0 19.3   704 – Lincoln Laboratory ETS, New Mexico MPS 12491
2000 03 09.34896 12 24 27.07 -06 34 52.0 19.2   704 – Lincoln Laboratory ETS, New Mexico MPS 12491
2000 03 09.36316 12 24 26.63 -06 34 46.5 19.3   704 – Lincoln Laboratory ETS, New Mexico MPS 12491
2000 03 26.33587 12 14 04.50 -03 48 08.7 17.5 R 699 – Lowell Observatory-LONEOS MPS 12491
2000 03 26.35644 12 14 03.70 -03 47 55.5   699 – Lowell Observatory-LONEOS MPS 12491
2000 03 26.37704 12 14 02.87 -03 47 42.8   699 – Lowell Observatory-LONEOS MPS 12491
2000 03 26.39767 12 14 02.03 -03 47 30.0   699 – Lowell Observatory-LONEOS MPS 12491
2000 04 04.31382 12 08 26.60 -02 14 46.2 17.9   704 – Lincoln Laboratory ETS, New Mexico MPS 12491
2000 04 04.32814 12 08 26.07 -02 14 38.1 17.9   704 – Lincoln Laboratory ETS, New Mexico MPS 12491
2000 04 04.34245 12 08 25.58 -02 14 28.1 18.0   704 – Lincoln Laboratory ETS, New Mexico MPS 12491
2000 04 04.35676 12 08 25.03 -02 14 20.2 17.7   704 – Lincoln Laboratory ETS, New Mexico MPS 12491
2000 04 04.37107 12 08 24.49 -02 14 10.6 18.1   704 – Lincoln Laboratory ETS, New Mexico MPS 12491
2000 04 05.20234 12 07 55.13 -02 05 41.0 17.8   704 – Lincoln Laboratory ETS, New Mexico MPS 12491
2000 04 05.21692 12 07 54.57 -02 05 32.3 18.0   704 – Lincoln Laboratory ETS, New Mexico MPS 12491
2000 04 05.23151 12 07 53.96 -02 05 23.1 19.2   704 – Lincoln Laboratory ETS, New Mexico MPS 12491
2000 04 05.24610 12 07 53.50 -02 05 13.9 18.0   704 – Lincoln Laboratory ETS, New Mexico MPS 12491
2000 04 05.26365 12 07 52.84 -02 05 03.3 18.4   704 – Lincoln Laboratory ETS, New Mexico MPS 12491
2000 04 06.20190 12 07 20.01 -01 55 31.1 17.8   704 – Lincoln Laboratory ETS, New Mexico MPS 12491
2000 04 06.21593 12 07 19.50 -01 55 22.6 18.2   704 – Lincoln Laboratory ETS, New Mexico MPS 12491
2000 04 06.22999 12 07 18.97 -01 55 13.7 19.2   704 – Lincoln Laboratory ETS, New Mexico MPS 12491
2000 04 06.25809 12 07 17.95 -01 54 56.5 18.7   704 – Lincoln Laboratory ETS, New Mexico MPS 12491
2000 04 07.19491 12 06 45.77 -01 45 30.0 18.5   704 – Lincoln Laboratory ETS, New Mexico MPS 12491
2000 04 07.20901 12 06 45.27 -01 45 21.3 19.1   704 – Lincoln Laboratory ETS, New Mexico MPS 12491
2000 04 07.22312 12 06 44.75 -01 45 13.2 19.0   704 – Lincoln Laboratory ETS, New Mexico MPS 12491
2000 04 07.23727 12 06 44.23 -01 45 04.4 18.8   704 – Lincoln Laboratory ETS, New Mexico MPS 12491
2000 04 07.25139 12 06 43.74 -01 44 55.5 18.8   704 – Lincoln Laboratory ETS, New Mexico MPS 12491
2000 04 08.25997 12 06 09.69 -01 34 50.0 18.2   704 – Lincoln Laboratory ETS, New Mexico MPS 12491
2000 04 08.27291 12 06 09.23 -01 34 42.9 18.4   704 – Lincoln Laboratory ETS, New Mexico MPS 12491
2000 04 08.27407 12 06 09.18 -01 34 42.4 18.7   704 – Lincoln Laboratory ETS, New Mexico MPS 12491
2000 04 08.28761 12 06 08.68 -01 34 33.4 19.1   704 – Lincoln Laboratory ETS, New Mexico MPS 12491
2000 04 08.28833 12 06 08.71 -01 34 33.3 18.4   704 – Lincoln Laboratory ETS, New Mexico MPS 12491
2000 04 08.30223 12 06 08.19 -01 34 24.1 18.6   704 – Lincoln Laboratory ETS, New Mexico MPS 12491
2000 04 08.30235 12 06 08.21 -01 34 24.6 18.6   704 – Lincoln Laboratory ETS, New Mexico MPS 12491
2000 04 08.33228 12 06 07.12 -01 34 05.7 18.8   704 – Lincoln Laboratory ETS, New Mexico MPS 12491
2000 04 25.21040 11 58 58.65 +00 55 13.3 18.3 R 699 – Lowell Observatory-LONEOS MPS 14195
2000 04 25.22620 11 58 58.36 +00 55 21.6   699 – Lowell Observatory-LONEOS MPS 14195
2000 04 25.24203 11 58 58.08 +00 55 28.4   699 – Lowell Observatory-LONEOS MPS 14195
2000 04 25.26982 11 58 57.60 +00 55 40.0   699 – Lowell Observatory-LONEOS MPS 14195
2000 05 04.20490 11 57 25.46 +01 54 48.4 18.5   704 – Lincoln Laboratory ETS, New Mexico MPS 14195
2000 05 04.21708 11 57 25.44 +01 54 53.0 19.1   704 – Lincoln Laboratory ETS, New Mexico MPS 14195
2000 05 04.22916 11 57 25.32 +01 54 57.1 18.9   704 – Lincoln Laboratory ETS, New Mexico MPS 14195
2000 05 04.24135 11 57 25.26 +01 55 01.1 18.8   704 – Lincoln Laboratory ETS, New Mexico MPS 14195
2000 05 04.25344 11 57 25.22 +01 55 05.6 19.1   704 – Lincoln Laboratory ETS, New Mexico MPS 14195
2000 05 04.268270 11 57 25.039 +01 55 09.73 18.83 V 645 – Apache Point-Sloan Digital Sky Survey MPS 79661
2000 05 04.271742 11 57 25.021 +01 55 10.87 19.52   645 – Apache Point-Sloan Digital Sky Survey MPS 79661
2000 05 30.16200 12 02 52.81 +03 15 28.9 19.2 R 699 – Lowell Observatory-LONEOS MPS 15707
2000 05 30.17144 12 02 53.10 +03 15 31.5   699 – Lowell Observatory-LONEOS MPS 15707
2000 05 30.18089 12 02 53.34 +03 15 31.1   699 – Lowell Observatory-LONEOS MPS 15707
2000 05 30.19040 12 02 53.57 +03 15 30.8   699 – Lowell Observatory-LONEOS MPS 15707
2002 08 31.26719 23 59 20.11 +05 44 53.6 18.9 R 843 – Emerald Lane Observatory, Decatur MPS 61018
2002 08 31.28816 23 59 19.66 +05 44 44.8 18.9 R 843 – Emerald Lane Observatory, Decatur MPS 61018
2002 09 03.24447 23 57 38.87 +05 26 45.8 19.2 R 843 – Emerald Lane Observatory, Decatur MPS 61018
2002 09 03.27580 23 57 37.76 +05 26 33.3 19.3 R 843 – Emerald Lane Observatory, Decatur MPS 61018
2002 09 04.23338 23 57 04.08 +05 20 30.8 18.9 R 843 – Emerald Lane Observatory, Decatur MPS 61018
2002 09 04.27047 23 57 02.71 +05 20 17.8 18.8 R 843 – Emerald Lane Observatory, Decatur MPS 61018
2002 09 05.25272 23 56 27.66 +05 13 58.5 19.2 R 843 – Emerald Lane Observatory, Decatur MPS 61018
2002 09 05.25934 23 56 27.45 +05 13 56.9 19.3 R 843 – Emerald Lane Observatory, Decatur MPS 61018
2002 09 05.26903 23 56 27.11 +05 13 52.4 19.0 R 843 – Emerald Lane Observatory, Decatur MPS 61018
2002 09 05.33817 23 56 24.63 +05 13 25.8 19.1 R 699 – Lowell Observatory-LONEOS MPS 61018
2002 09 05.35220 23 56 24.02 +05 13 21.0   699 – Lowell Observatory-LONEOS MPS 61018
2002 09 05.36624 23 56 23.54 +05 13 14.4   699 – Lowell Observatory-LONEOS MPS 61018
2002 09 05.38026 23 56 22.95 +05 13 09.9   699 – Lowell Observatory-LONEOS MPS 61018
2002 09 06.26481 23 55 51.02 +05 07 23.6 19.4   704 – Lincoln Laboratory ETS, New Mexico MPS 61018
2002 09 06.29258 23 55 50.01 +05 07 12.6 20.1   704 – Lincoln Laboratory ETS, New Mexico MPS 61018
2002 09 06.30641 23 55 49.46 +05 07 08.0 20.1   704 – Lincoln Laboratory ETS, New Mexico MPS 61018
2002 09 13.45917 23 51 18.51 +04 17 55.8 19.4   644 – Palomar Mountain/NEAT MPS 61018
2002 09 13.46974 23 51 18.09 +04 17 51.1 19.6   644 – Palomar Mountain/NEAT MPS 61018
2002 09 13.48130 23 51 17.63 +04 17 46.4 19.6   644 – Palomar Mountain/NEAT MPS 61018
2002 09 14.38303 23 50 42.58 +04 11 17.1 19.6   644 – Palomar Mountain/NEAT MPS 61018
2002 09 14.40396 23 50 41.76 +04 11 08.1 19.4   644 – Palomar Mountain/NEAT MPS 61018
2002 09 14.42617 23 50 40.87 +04 10 58.5 19.3   644 – Palomar Mountain/NEAT MPS 61018
2002 09 17.14514 23 48 54.42 +03 51 11.3 19.4   644 – Palomar Mountain/NEAT MPS 62960
2002 09 17.23341 23 48 50.88 +03 50 32.4 18.8   644 – Palomar Mountain/NEAT MPS 62960
2002 09 17.29837 23 48 48.24 +03 50 03.9 18.9   644 – Palomar Mountain/NEAT MPS 62960
2002 09 30.27057 23 40 24.99 +02 12 49.0 18.9   704 – Lincoln Laboratory ETS, New Mexico MPS 62960
2002 09 30.28476 23 40 24.43 +02 12 42.6 19.6   704 – Lincoln Laboratory ETS, New Mexico MPS 62960
2002 09 30.29906 23 40 23.92 +02 12 36.5 19.4   704 – Lincoln Laboratory ETS, New Mexico MPS 62960
